SCP
0 0 0 -0 -0 0 0 0 0 0 0 -0 -0 -0 0 0 -0 0 0 -0 0 -0 -0 0 0 0 0 0 0 0 0 0 0 0 0 0 0 0 0 0 0 0 0 0
0 0 0 -0 0 0 0 0 0 0 0 -0 -0 0 0 0 -0 0 -0 0 0 -0 0 0 0 0 0 0 0 0 0 0 0 0 0 0 0 0 0 0 0 0 0 0
0 0 0 0 0 0 0 0 0 0 0 0 0 0 0 0 0 -0 -0 0 -0 0 -0 0 0 0 0 0 0 0 0 0 0 0 0 0 0 0 0 0 0 0 0 0
0 0 0 0 0 0 0 0 0 0 0 0 -0 0 0 0 -0 0 -0 -0 -0 -0 0 0 0 0 0 0 0 0 0 0 0 0 0 0 0 0 0 0 0 0 0 0
0 0 0 0 0 0 0 0 0 0 0 0 0 0 0 -0 0 0 -0 -0 -0 0 0 0 0 0 0 0 0 0 0 0 0 0 0 0 0 0 0 0 0 0 0 0
0 0 0 0 0 0 0 0 0 0 0 0 0 0 0 0 0 0 0 0 0 0 0 0 0 0 0 0 0 0 0 0 0 0 0 0 0 0 0 0 0 0 0 0
0 0 0 0 0 0 0 0 0 0 0 0 0 0 0 0 0 0 0 0 0 0 0 -0 0 -0 0 0 0 0 0 0 0 0 0 0 0 0 0 0 0 0 0 0
0 0 0 0 -0 0 0 0 0 0 0 0 0 0 0 0 0 0 0 0 0 0 0 0 0 0 0 0 0 0 0 0 0 0 0 0 0 0 0 0 0 0 0 0
0 0 0 0 0 0 0 0 0 0 0 0 0 0 0 0 0 0 0 0 0 0 0 0 0 0 0 0 0 0 0 0 0 0 0 0 0 0 0 0 0 0 0 0
0 0 0 0 0 -0 0 0 0 0 0 0 0 0 0 0 0 0 0 0 0 0 0 0 0 0 0 0 0 0 0 0 0 0 0 -0 0 0 0 0 0 0 0 0
0 0 0 0 0 -0 0 0 0 0 0 0 0 0 0 0 0 0 0 0 0 0 0 0 0 0 0 0 0 0 0 -0 -0 -0 -0 -0 0 0 0 0 0 0 0 0
0 0 0 0 0 -0 -0 0 0 0 0 0 0 0 0 0 0 0 0 0 0 0 0 0 0 0 0 0 -0 0 -0 -0 0 0 0 0 0 0 0 0 0 0 0 0
0 0 0 0 0 0 -0 0 0 0 0 0 -0 0 0 0 0 0 0 0 0 0 0 0 0 -0 -0 -0 -0 -0 -0 0 0 0 0 0 0 0 0 0 0 0 0 0
0 0 -0 -0 0 0 0 0 0 0 0 0 0 0 0 0 0 0 0 0 0 0 0 0 -0 -0 -0 -0 0 -0 0 0 0 0 0 0 0 0 0 0 0 0 0 0
0 0 -0 0 -0 0 0 0 0 0 0 0 -0 0 0 0 0 0 0 0 0 0 0 -0 -0 0 -0 0 0 -0 0 0 0 0 0 0 0 0 0 0 0 0 0 0
0 0 -0 -0 0 0 0 0 0 0 0 0 0 0 0 0 0 0 0 0 0 0 0 0 0 0 0 0 0 0 0 0 0 0 0 0 0 0 0 0 0 0 0 0
0 0 -0 0 0 0 0 0 0 0 0 0 0 0 0 0 0 0 0 0 0 0 0 0 0 0 0 0 0 0 0 0 0 0 0 0 0 0 0 0 0 0 0 0
0 0 0 0 0 0 0 0 0 0 0 0 0 0 0 0 0 0 0 0 0 0 0 0 0 0 0 0 0 0 0 0 0 0 0 0 0 0 0 0 0 0 0 0
0 -0 -0 0 0 0 0 -0 -0 0 0 0 0 0 0 0 0 0 0 0 0 0 0 0 0 0 0 0 0 0 0 0 0 0 0 0 0 0 0 0 0 0 0 0
0 0 0 0 0 0 0 0 0 0 0 0 0 0 0 0 0 0 0 0 0 0 0 0 0 0 0 0 0 0 0 0 0 0 0 0 0 0 0 0 0 0 0 0
0 0 0 0 0 0 0 0 0 0 0 0 0 0 0 0 0 0 0 0 0 0 0 0 0 0 0 0 0 0 0 0 0 0 0 0 0 0 0 0 0 0 0 0
0 0 0 0 0 0 0 0 0 0 0 0 0 0 0 0 0 0 0 0 0 0 0 0 0 0 0 0 0 0 0 0 0 0 0 0 0 0 0 0 0 0 0 0
0 0 0 0 0 0 0 0 0 0 0 0 0 0 0 0 0 0 0 0 0 0 0 0 0 0 0 0 0 0 0 0 0 0 0 0 0 0 0 0 0 0 0 0
0 0 0 0 0 0 0 0 0 0 0 0 0 0 0 0 0 0 0 0 0 0 0 0 0 0 0 0 0 0 0 0 0 0 0 0 0 0 0 0 0 0 0 0
0 0 0 0 0 0 0 0 0 0 0 0 0 0 0 0 0 0 0 0 0 0 0 0 0 0 0 0 0 0 0 0 0 0 0 0 0 0 0 0 0 0 0 0
0 0 0 0 0 0 0 0 0 0 0 0 0 0 0 0 0 0 0 0 0 0 0 0 0 0 0 0 0 0 0 0 0 0 0 0 0 0 0 0 0 0 0 0
0 0 0 0 0 0 0 0 0 0 0 0 0 0 0 0 0 0 0 0 0 0 0 0 0 0 0 0 0 0 0 0 0 0 0 0 0 0 0 0 0 0 0 0
Wind_Speed_500mb
32 33 30 25 20 21 13 14 11 10 12 13 17 13 5 5 7 6 7 8 9 8 14 8 8 4 7 6 7 3 5 7 10 9 7 4 7 8 12 10 10 8 7 3
34 31 30 29 24 20 12 19 20 13 16 12 16 12 8 8 7 7 4 5 4 1 8 9 6 5 3 5 5 3 2 7 9 10 8 6 10 16 13 6 3 17 13 4
29 34 32 27 29 26 27 17 8 16 25 32 19 23 21 13 7 7 6 4 4 5 7 4 6 8 3 2 2 7 8 4 10 9 11 6 9 16 18 20 11 16 17 10
32 30 33 30 28 33 34 12 13 7 8 25 26 22 13 14 8 8 7 6 15 12 9 9 8 7 7 3 1 5 6 6 4 4 3 4 7 9 18 25 26 20 17 9
30 31 28 33 29 34 38 10 17 6 31 14 15 20 22 25 11 7 7 11 3 8 8 7 5 12 10 3 10 7 3 2 2 6 3 7 15 18 21 23 26 25 23 28
30 32 25 32 31 38 25 26 30 21 8 16 16 20 20 17 11 6 4 7 7 9 6 5 11 10 11 9 8 8 5 4 3 2 1 10 20 22 26 17 13 16 18 8
33 33 31 30 38 42 36 22 18 30 22 15 18 10 13 16 17 7 4 5 10 6 20 23 20 20 19 17 14 8 5 5 1 5 5 8 9 9 9 14 7 16 7 3
35 37 34 24 38 36 53 40 6 28 22 32 21 21 13 9 10 4 8 7 3 29 8 7 7 8 8 9 10 7 7 4 3 5 10 15 15 5 5 9 2 14 15 8
40 51 49 33 35 41 39 61 35 16 22 26 19 11 18 13 13 9 6 6 28 3 7 5 6 7 1 6 5 2 2 7 8 4 3 7 7 10 7 4 8 5 16 17
43 44 50 45 35 45 35 36 58 22 28 38 6 9 11 13 16 3 11 15 12 5 7 7 7 6 3 6 8 9 8 7 15 12 9 11 17 18 11 7 5 14 10 11
48 50 43 42 28 41 37 35 43 43 27 29 16 15 7 8 17 10 22 12 10 11 9 7 6 6 5 5 5 7 13 11 8 9 9 11 24 14 8 8 7 9 7 10
45 43 47 35 22 31 34 30 33 49 31 19 22 25 25 25 14 3 30 6 10 16 9 5 4 5 5 5 5 7 8 7 3 12 4 5 30 8 7 5 5 9 12 12
49 48 55 59 29 29 39 29 19 34 36 33 35 21 26 26 27 24 12 11 9 9 4 6 1 5 4 7 9 6 9 5 6 4 7 17 14 25 12 10 7 9 13 16
48 47 44 69 31 36 40 36 33 37 20 20 16 30 24 26 26 30 21 8 17 13 8 5 4 4 5 3 5 7 6 17 10 16 25 12 25 25 23 17 14 18 18 17
49 47 50 59 63 35 36 33 40 52 25 7 6 12 21 20 21 24 20 13 11 13 9 6 6 3 7 1 3 12 19 15 11 10 9 13 5 10 22 23 22 21 20 16
52 45 43 55 66 39 31 14 41 55 55 8 5 6 7 14 16 18 17 15 8 7 6 4 4 2 4 4 7 12 26 34 28 21 5 5 8 10 18 21 22 21 18 13
50 46 38 51 56 42 40 12 18 60 54 9 4 8 8 18 15 11 7 10 5 4 5 7 6 7 6 5 9 14 27 27 21 14 13 8 10 8 20 20 23 23 17 12
49 45 41 55 45 40 50 61 17 18 35 13 6 6 13 22 14 11 10 9 8 3 6 4 6 6 8 10 30 30 15 18 22 21 18 6 13 17 24 23 23 20 15 11
44 38 33 43 35 33 32 48 40 28 24 10 11 14 9 23 9 9 8 7 5 2 6 7 7 8 12 17 23 18 24 24 18 24 19 16 19 24 25 23 23 20 14 13
42 34 19 17 19 27 30 20 22 21 18 13 7 15 8 22 16 7 12 4 6 6 5 10 7 13 34 30 15 11 24 24 28 33 26 24 22 22 23 22 17 17 15 13
64 23 20 24 37 34 22 13 17 21 9 23 16 21 16 14 11 8 6 7 8 7 8 8 8 8 13 8 17 18 24 26 27 18 17 20 18 21 19 17 16 14 11 10
51 27 37 40 17 13 10 13 12 15 15 24 25 22 20 14 10 9 9 6 5 7 15 6 7 5 11 9 19 23 28 28 27 20 21 21 18 17 14 13 13 8 8 15
51 20 15 15 14 17 20 22 11 12 22 26 32 14 18 12 8 10 6 9 6 12 8 8 9 15 18 18 26 27 26 29 26 22 20 21 18 16 13 10 9 9 14 18
16 16 15 13 15 15 11 23 19 19 29 55 54 25 12 11 8 6 9 5 7 7 9 13 8 26 29 24 26 34 31 29 26 24 21 20 15 13 10 7 10 14 13 21
16 16 14 21 19 10 29 46 40 25 55 66 32 20 14 7 8 5 10 6 10 13 10 6 18 32 36 34 34 36 32 30 29 27 23 19 14 9 5 7 11 15 18 21
22 20 11 26 21 13 20 32 38 53 67 51 19 10 9 6 12 11 14 15 15 9 9 21 35 41 41 41 39 37 34 31 29 25 20 15 10 7 7 11 10 15 21 23
14 11 26 30 32 28 37 43 39 63 66 18 10 11 9 12 8 11 13 12 7 25 29 32 40 47 47 44 41 37 33 30 25 22 14 10 8 9 7 5 13 18 20 23
Wind_Direction_500mb
313 313 311 278 250 247 218 257 237 223 210 231 231 271 17 336 264 229 265 282 297 158 223 230 231 224 17 17 334 214 36 306 159 136 90 345 308 272 242 249 172 241 293 296
315 304 302 297 253 230 184 258 241 253 193 255 242 207 255 263 252 244 261 269 285 299 203 219 201 161 57 11 307 349 115 220 162 166 175 178 227 206 241 273 291 265 275 89
315 308 295 290 254 219 215 284 233 197 211 254 275 289 271 241 225 257 262 296 245 244 225 248 180 143 116 344 335 337 298 283 304 8 58 86 187 204 216 227 241 262 236 263
299 312 301 283 252 221 216 232 252 301 204 237 238 252 283 269 241 230 231 216 243 236 239 208 176 131 136 139 248 260 282 246 268 46 23 327 298 224 212 227 247 274 294 303
293 295 304 287 264 223 212 250 256 249 265 278 255 222 251 253 232 243 211 248 221 237 275 350 219 176 195 150 183 210 201 119 295 245 234 277 270 256 247 240 253 266 279 282
279 277 303 296 266 223 231 237 272 295 277 233 241 232 243 252 228 212 277 294 209 215 81 75 70 79 66 105 169 168 188 168 225 205 67 288 264 247 231 237 244 253 257 21
262 269 286 306 269 232 213 255 257 261 256 234 241 256 273 241 226 275 155 202 257 116 125 111 101 98 96 90 73 19 177 197 248 308 272 246 76 51 3 212 257 227 230 192
258 254 266 288 281 250 230 226 273 276 264 263 255 244 232 179 165 128 144 84 59 143 161 190 170 167 179 91 48 43 341 211 200 254 240 309 161 189 181 204 303 221 231 197
262 246 251 273 283 258 253 234 228 278 280 258 260 238 216 217 202 158 114 76 157 196 241 229 228 213 319 161 144 57 211 270 245 166 254 252 72 142 158 181 251 149 184 195
261 256 259 259 268 261 263 244 226 239 268 261 255 241 216 216 201 152 137 151 195 224 210 217 228 219 0 217 212 169 172 198 222 218 241 270 120 148 165 231 62 150 182 195
254 260 262 238 253 251 259 251 217 212 253 281 263 245 225 215 213 191 140 140 199 189 226 224 201 253 162 252 60 190 186 175 203 211 213 244 149 141 220 88 112 159 180 183
255 260 246 224 209 241 260 243 229 227 230 272 293 260 239 222 200 108 179 345 149 181 208 208 88 183 172 249 218 204 228 240 297 206 238 115 185 59 135 141 173 195 187 171
253 261 268 244 229 240 258 237 223 211 228 257 261 259 241 227 217 196 205 215 182 185 164 130 140 223 193 217 239 214 229 178 238 338 179 219 215 220 211 203 219 192 184 166
250 251 270 235 251 230 258 239 230 202 226 231 224 236 224 223 214 205 204 215 194 161 165 168 154 200 215 288 0 271 23 153 230 252 263 226 242 232 226 219 200 170 159 164
247 247 246 259 221 265 257 245 225 206 223 296 162 198 224 216 207 203 199 175 170 172 173 184 197 123 183 171 299 244 194 220 206 253 348 221 80 209 202 193 181 174 163 167
245 245 249 248 217 242 241 237 247 209 207 264 200 206 171 179 168 164 159 164 172 186 200 163 159 174 227 197 249 239 224 230 241 263 191 151 145 164 178 179 175 172 175 178
238 237 244 225 228 228 194 219 165 200 206 243 184 186 182 160 147 134 138 160 168 183 163 207 186 176 206 229 236 243 233 226 217 193 162 189 194 193 174 172 171 176 179 189
235 231 244 234 221 239 218 223 223 186 178 233 182 125 163 166 172 144 148 169 165 78 161 158 209 153 217 253 246 257 222 194 198 197 201 224 175 159 164 168 175 179 193 216
225 225 233 220 239 214 224 226 235 201 183 201 167 158 165 159 141 128 135 181 172 158 216 187 187 199 224 232 248 235 201 194 197 183 184 169 166 165 169 178 189 198 211 242
209 201 163 179 195 193 192 180 176 189 220 212 209 126 134 169 159 134 135 172 159 188 163 130 224 258 251 244 236 222 194 184 170 165 175 174 175 178 186 195 202 213 236 269
193 168 174 166 158 165 174 189 183 196 208 186 162 174 135 171 175 134 201 180 161 214 130 216 215 253 228 228 210 197 177 173 170 171 169 172 178 183 186 194 204 217 255 287
194 167 136 142 195 212 184 186 203 195 195 156 153 147 131 145 147 127 169 163 169 201 142 222 245 219 145 157 163 171 170 161 158 147 153 159 158 167 176 190 203 230 269 302
150 146 146 155 189 218 193 186 192 163 158 157 151 131 137 128 149 112 145 162 169 130 197 228 234 138 162 158 161 158 155 160 158 152 157 158 164 176 183 208 227 267 300 310
159 158 175 212 188 229 205 192 167 141 162 155 149 128 133 132 144 135 137 80 168 201 230 230 193 176 164 155 156 160 158 162 168 169 164 171 175 189 205 219 275 297 303 306
161 178 219 205 223 156 190 190 150 154 156 148 134 99 110 124 117 143 109 136 214 217 228 184 146 159 156 151 148 152 154 152 151 157 159 159 163 171 197 266 292 294 306 316
188 208 240 197 174 161 179 167 150 152 155 147 131 126 138 151 145 152 203 174 212 208 200 154 153 157 157 152 151 148 148 149 149 154 164 178 198 220 250 278 292 296 313 318
206 218 211 202 184 185 170 175 166 162 157 159 138 129 165 118 170 198 185 209 174 147 148 154 158 158 157 154 151 150 151 150 152 165 177 197 240 271 279 275 286 309 319 319
Wind_Speed_850mb
32 33 30 25 20 21 13 14 11 10 12 13 17 13 5 5 7 6 7 8 9 8 14 8 8 4 7 6 7 3 5 7 10 9 7 4 7 8 12 10 10 8 7 3
34 31 30 29 24 20 12 19 20 13 16 12 16 12 8 8 7 7 4 5 4 1 8 9 6 5 3 5 5 3 2 7 9 10 8 6 10 16 13 6 3 17 13 4
29 34 32 27 29 26 27 17 8 16 25 32 19 23 21 13 7 7 6 4 4 5 7 4 6 8 3 2 2 7 8 4 10 9 11 6 9 16 18 20 11 16 17 10
32 30 33 30 28 33 34 12 13 7 8 25 26 22 13 14 8 8 7 6 15 12 9 9 8 7 7 3 1 5 6 6 4 4 3 4 7 9 18 25 26 20 17 9
30 31 28 33 29 34 38 10 17 6 31 14 15 20 22 25 11 7 7 11 3 8 8 7 5 12 10 3 10 7 3 2 2 6 3 7 15 18 21 23 26 25 23 28
30 32 25 32 31 38 25 26 30 21 8 16 16 20 20 17 11 6 4 7 7 9 6 5 11 10 11 9 8 8 5 4 3 2 1 10 20 22 26 17 13 16 18 8
33 33 31 30 38 42 36 22 18 30 22 15 18 10 13 16 17 7 4 5 10 6 20 23 20 20 19 17 14 8 5 5 1 5 5 8 9 9 9 14 7 16 7 3
35 37 34 24 38 36 53 40 6 28 22 32 21 21 13 9 10 4 8 7 3 29 8 7 7 8 8 9 10 7 7 4 3 5 10 15 15 5 5 9 2 14 15 8
40 51 49 33 35 41 39 61 35 16 22 26 19 11 18 13 13 9 6 6 28 3 7 5 6 7 1 6 5 2 2 7 8 4 3 7 7 10 7 4 8 5 16 17
43 44 50 45 35 45 35 36 58 22 28 38 6 9 11 13 16 3 11 15 12 5 7 7 7 6 3 6 8 9 8 7 15 12 9 11 17 18 11 7 5 14 10 11
48 50 43 42 28 41 37 35 43 43 27 29 16 15 7 8 17 10 22 12 10 11 9 7 6 6 5 5 5 7 13 11 8 9 9 11 24 14 8 8 7 9 7 10
45 43 47 35 22 31 34 30 33 49 31 19 22 25 25 25 14 3 30 6 10 16 9 5 4 5 5 5 5 7 8 7 3 12 4 5 30 8 7 5 5 9 12 12
49 48 55 59 29 29 39 29 19 34 36 33 35 21 26 26 27 24 12 11 9 9 4 6 1 5 4 7 9 6 9 5 6 4 7 17 14 25 12 10 7 9 13 16
48 47 44 69 31 36 40 36 33 37 20 20 16 30 24 26 26 30 21 8 17 13 8 5 4 4 5 3 5 7 6 17 10 16 25 12 25 25 23 17 14 18 18 17
49 47 50 59 63 35 36 33 40 52 25 7 6 12 21 20 21 24 20 13 11 13 9 6 6 3 7 1 3 12 19 15 11 10 9 13 5 10 22 23 22 21 20 16
52 45 43 55 66 39 31 14 41 55 55 8 5 6 7 14 16 18 17 15 8 7 6 4 4 2 4 4 7 12 26 34 28 21 5 5 8 10 18 21 22 21 18 13
50 46 38 51 56 42 40 12 18 60 54 9 4 8 8 18 15 11 7 10 5 4 5 7 6 7 6 5 9 14 27 27 21 14 13 8 10 8 20 20 23 23 17 12
49 45 41 55 45 40 50 61 17 18 35 13 6 6 13 22 14 11 10 9 8 3 6 4 6 6 8 10 30 30 15 18 22 21 18 6 13 17 24 23 23 20 15 11
44 38 33 43 35 33 32 48 40 28 24 10 11 14 9 23 9 9 8 7 5 2 6 7 7 8 12 17 23 18 24 24 18 24 19 16 19 24 25 23 23 20 14 13
42 34 19 17 19 27 30 20 22 21 18 13 7 15 8 22 16 7 12 4 6 6 5 10 7 13 34 30 15 11 24 24 28 33 26 24 22 22 23 22 17 17 15 13
64 23 20 24 37 34 22 13 17 21 9 23 16 21 16 14 11 8 6 7 8 7 8 8 8 8 13 8 17 18 24 26 27 18 17 20 18 21 19 17 16 14 11 10
51 27 37 40 17 13 10 13 12 15 15 24 25 22 20 14 10 9 9 6 5 7 15 6 7 5 11 9 19 23 28 28 27 20 21 21 18 17 14 13 13 8 8 15
51 20 15 15 14 17 20 22 11 12 22 26 32 14 18 12 8 10 6 9 6 12 8 8 9 15 18 18 26 27 26 29 26 22 20 21 18 16 13 10 9 9 14 18
16 16 15 13 15 15 11 23 19 19 29 55 54 25 12 11 8 6 9 5 7 7 9 13 8 26 29 24 26 34 31 29 26 24 21 20 15 13 10 7 10 14 13 21
16 16 14 21 19 10 29 46 40 25 55 66 32 20 14 7 8 5 10 6 10 13 10 6 18 32 36 34 34 36 32 30 29 27 23 19 14 9 5 7 11 15 18 21
22 20 11 26 21 13 20 32 38 53 67 51 19 10 9 6 12 11 14 15 15 9 9 21 35 41 41 41 39 37 34 31 29 25 20 15 10 7 7 11 10 15 21 23
14 11 26 30 32 28 37 43 39 63 66 18 10 11 9 12 8 11 13 12 7 25 29 32 40 47 47 44 41 37 33 30 25 22 14 10 8 9 7 5 13 18 20 23
Wind_Direction_850mb
313 313 311 278 250 247 218 257 237 223 210 231 231 271 17 336 264 229 265 282 297 158 223 230 231 224 17 17 334 214 36 306 159 136 90 345 308 272 242 249 172 241 293 296
315 304 302 297 253 230 184 258 241 253 193 255 242 207 255 263 252 244 261 269 285 299 203 219 201 161 57 11 307 349 115 220 162 166 175 178 227 206 241 273 291 265 275 89
315 308 295 290 254 219 215 284 233 197 211 254 275 289 271 241 225 257 262 296 245 244 225 248 180 143 116 344 335 337 298 283 304 8 58 86 187 204 216 227 241 262 236 263
299 312 301 283 252 221 216 232 252 301 204 237 238 252 283 269 241 230 231 216 243 236 239 208 176 131 136 139 248 260 282 246 268 46 23 327 298 224 212 227 247 274 294 303
293 295 304 287 264 223 212 250 256 249 265 278 255 222 251 253 232 243 211 248 221 237 275 350 219 176 195 150 183 210 201 119 295 245 234 277 270 256 247 240 253 266 279 282
279 277 303 296 266 223 231 237 272 295 277 233 241 232 243 252 228 212 277 294 209 215 81 75 70 79 66 105 169 168 188 168 225 205 67 288 264 247 231 237 244 253 257 21
262 269 286 306 269 232 213 255 257 261 256 234 241 256 273 241 226 275 155 202 257 116 125 111 101 98 96 90 73 19 177 197 248 308 272 246 76 51 3 212 257 227 230 192
258 254 266 288 281 250 230 226 273 276 264 263 255 244 232 179 165 128 144 84 59 143 161 190 170 167 179 91 48 43 341 211 200 254 240 309 161 189 181 204 303 221 231 197
262 246 251 273 283 258 253 234 228 278 280 258 260 238 216 217 202 158 114 76 157 196 241 229 228 213 319 161 144 57 211 270 245 166 254 252 72 142 158 181 251 149 184 195
261 256 259 259 268 261 263 244 226 239 268 261 255 241 216 216 201 152 137 151 195 224 210 217 228 219 0 217 212 169 172 198 222 218 241 270 120 148 165 231 62 150 182 195
254 260 262 238 253 251 259 251 217 212 253 281 263 245 225 215 213 191 140 140 199 189 226 224 201 253 162 252 60 190 186 175 203 211 213 244 149 141 220 88 112 159 180 183
255 260 246 224 209 241 260 243 229 227 230 272 293 260 239 222 200 108 179 345 149 181 208 208 88 183 172 249 218 204 228 240 297 206 238 115 185 59 135 141 173 195 187 171
253 261 268 244 229 240 258 237 223 211 228 257 261 259 241 227 217 196 205 215 182 185 164 130 140 223 193 217 239 214 229 178 238 338 179 219 215 220 211 203 219 192 184 166
250 251 270 235 251 230 258 239 230 202 226 231 224 236 224 223 214 205 204 215 194 161 165 168 154 200 215 288 0 271 23 153 230 252 263 226 242 232 226 219 200 170 159 164
247 247 246 259 221 265 257 245 225 206 223 296 162 198 224 216 207 203 199 175 170 172 173 184 197 123 183 171 299 244 194 220 206 253 348 221 80 209 202 193 181 174 163 167
245 245 249 248 217 242 241 237 247 209 207 264 200 206 171 179 168 164 159 164 172 186 200 163 159 174 227 197 249 239 224 230 241 263 191 151 145 164 178 179 175 172 175 178
238 237 244 225 228 228 194 219 165 200 206 243 184 186 182 160 147 134 138 160 168 183 163 207 186 176 206 229 236 243 233 226 217 193 162 189 194 193 174 172 171 176 179 189
235 231 244 234 221 239 218 223 223 186 178 233 182 125 163 166 172 144 148 169 165 78 161 158 209 153 217 253 246 257 222 194 198 197 201 224 175 159 164 168 175 179 193 216
225 225 233 220 239 214 224 226 235 201 183 201 167 158 165 159 141 128 135 181 172 158 216 187 187 199 224 232 248 235 201 194 197 183 184 169 166 165 169 178 189 198 211 242
209 201 163 179 195 193 192 180 176 189 220 212 209 126 134 169 159 134 135 172 159 188 163 130 224 258 251 244 236 222 194 184 170 165 175 174 175 178 186 195 202 213 236 269
193 168 174 166 158 165 174 189 183 196 208 186 162 174 135 171 175 134 201 180 161 214 130 216 215 253 228 228 210 197 177 173 170 171 169 172 178 183 186 194 204 217 255 287
194 167 136 142 195 212 184 186 203 195 195 156 153 147 131 145 147 127 169 163 169 201 142 222 245 219 145 157 163 171 170 161 158 147 153 159 158 167 176 190 203 230 269 302
150 146 146 155 189 218 193 186 192 163 158 157 151 131 137 128 149 112 145 162 169 130 197 228 234 138 162 158 161 158 155 160 158 152 157 158 164 176 183 208 227 267 300 310
159 158 175 212 188 229 205 192 167 141 162 155 149 128 133 132 144 135 137 80 168 201 230 230 193 176 164 155 156 160 158 162 168 169 164 171 175 189 205 219 275 297 303 306
161 178 219 205 223 156 190 190 150 154 156 148 134 99 110 124 117 143 109 136 214 217 228 184 146 159 156 151 148 152 154 152 151 157 159 159 163 171 197 266 292 294 306 316
188 208 240 197 174 161 179 167 150 152 155 147 131 126 138 151 145 152 203 174 212 208 200 154 153 157 157 152 151 148 148 149 149 154 164 178 198 220 250 278 292 296 313 318
206 218 211 202 184 185 170 175 166 162 157 159 138 129 165 118 170 198 185 209 174 147 148 154 158 158 157 154 151 150 151 150 152 165 177 197 240 271 279 275 286 309 319 319